Regional Weather Roundup
Issued by NWS

Home | Current Version | Previous Version | Text Only | Print | Product List | Glossary On
Versions: 1 2 3 4 5 6 7 8 9 10 11 12 13 14 15 16 17 18 19 20 21 22 23 24 25 26 27 28 29 30 31 32 33 34 35 36 37 38 39 40 41 42 43 44 45 46 47 48 49 50
000
ASUS43 KLOT 292100
RWRIL

ILLINOIS REGIONAL WEATHER ROUNDUP
NATIONAL WEATHER SERVICE CHICAGO/ROMEOVILLE IL
400 PM CDT WED JUL 29 2015

NOTE: "FAIR" INDICATES FEW OR NO CLOUDS BELOW 12,000 FEET WITH NO
SIGNIFICANT WEATHER AND/OR OBSTRUCTIONS TO VISIBILITY.

* THESE STATIONS ARE NOT UNDER NWS QUALITY CONTROL. THEY ALSO MAY NOT
  REPORT WEATHER SUCH AS PRECIPITATION OR FOG.

ILZ001-002-007-009-015-016-024-292200-
NORTHWEST ILLINOIS

CITY           SKY/WX    TMP DP  RH WIND       PRES   REMARKS
MOLINE         MOSUNNY   85  56  37 NW8       30.05F HX  84
STERLING*      SUNNY     84  59  42 W14       30.02F HX  84
$$

ILZ003-004-008-010-011-017-018-292200-
NORTH CENTRAL ILLINOIS

CITY           SKY/WX    TMP DP  RH WIND       PRES   REMARKS
ROCKFORD       MOSUNNY   85  54  34 W18G24    30.01F HX  83
$$

ILZ005-006-012>014-019>023-292200-
NORTHEAST ILLINOIS

CITY           SKY/WX    TMP DP  RH WIND       PRES   REMARKS
CHICAGO-OHARE  MOSUNNY   86  52  30 NW18G25   29.96F HX  84
CHICAGO-MIDWAY MOSUNNY   90  48  23 NW16G23   29.96F HX  87
AURORA         SUNNY     83  57  41 W12       30.00F HX  82
WAUKEGAN       SUNNY     83  53  35 W7G17     29.95F HX  82
DUPAGE AIRPORT SUNNY     84  51  31 W15       29.99F HX  82
WHEELING       SUNNY     86  48  26 NW16G25   29.97F HX  83
NORTHERLY ISL    N/A     87  44  22 NW7         N/A  HX  84
$$

LMZ740>746-292200-
SOUTHERN LAKE MICHIGAN

STATION/POSITION SKY/WX   TEMP    WIND        PRES    VSBY  WAVE
                          AIR SEA DIR/SP/G                  HT/PER
                          (F)     (DEG/KT/KT) (MB)    (MI)  (FT/S)
HARRISON CRIB              85     280/ 15/ 18   N/A
BURNHAM HARBOR             88     260/  9/ 13   N/A
CALUMET HARBOR             78                   N/A
BURNS HARBOR               80      40/  5/  6 1015.6F
MICHIGAN CITY              80     340/  5/  6   N/A
MICHIGAN CITY 6N           77 77  360/  4/  6   N/A           1
ST. JOSEPH                 76 76  330/  6/  8   N/A           1/ 2
$$

ILZ025>027-034>036-040-047-049-050-058-095>099-292200-
WEST-CENTRAL ILLINOIS

CITY           SKY/WX    TMP DP  RH WIND       PRES   REMARKS
QUINCY         MOSUNNY   84  60  44 NW10      30.09F HX  84
MACOMB*        MOSUNNY   83  56  39 NW9       30.10F HX  82
$$

ILZ028>032-037-038-041>044-048-051>054-059>061-292200-
CENTRAL ILLINOIS

CITY           SKY/WX    TMP DP  RH WIND       PRES   REMARKS
DECATUR        PTSUNNY   87  65  47 N10G17    30.03S HX  89
PEORIA         SUNNY     86  56  35 NW10G17   30.05S HX  85
SPRINGFIELD    MOSUNNY   89  66  46 NW13      30.04F HX  91
TAYLORVILLE    NOT AVBL
$$

ILZ033-039-045-046-055>057-062-063-292200-
EAST-CENTRAL ILLINOIS

CITY           SKY/WX    TMP DP  RH WIND       PRES   REMARKS
CHAMPAIGN      MOSUNNY   86  65  49 NW8       30.02S HX  88
MATTOON        PTSUNNY   87  74  64 N16       30.00S HX  95
$$

ILZ079-100>102-292200-
SOUTHWEST ILLINOIS

CITY           SKY/WX    TMP DP  RH WIND       PRES   REMARKS
CAHOKIA*       PTSUNNY   89  70  53 N13       30.03S HX  94
SPARTA*        SUNNY     88  75  65 NW12      30.02F HX  98
$$

ILZ064>066-069>071-074>076-080>082-084>086-088>090-092>094-292200-
SOUTH-CENTRAL ILLINOIS

CITY           SKY/WX    TMP DP  RH WIND       PRES   REMARKS
CARBONDALE     MOSUNNY   89  76  65 N12       29.99F HX 100
MARION         PTSUNNY   90  77  66 N21       29.98F HX 102
MT. VERNON     SUNNY     88  73  62 N5        30.00S HX  96
$$

ILZ067-068-072-073-078-083-087-091-292200-
SOUTHEAST ILLINOIS

CITY           SKY/WX    TMP DP  RH WIND       PRES   REMARKS
LAWRENCEVILLE  CLOUDY    79  75  87 NW6       29.98F HX  83
HARRISBURG*    MOSUNNY   92  77  62 NW8G17    29.98F HX 105
$$

ABBREVIATIONS USED IN REMARKS
   TC - TEMPERATURE IN CELSIUS
  WCI - WIND CHILL INDEX
   HX - HEAT INDEX
  VSB - VISIBILITY
$$



USA.gov is the U.S. government's official web portal to all federal, state and local government web resources and services.